Talkeetna, AK

7:51 AM AKDT on April 19, 2018 (GMT -0800)
Talkeetna

Weather History for PATK - November, 2012

Change the Weather History Date:

Sunday, November 11, 2012

  Actual Average Record
Temperature  
Mean Temperature 27 °F -  
Max Temperature 33 °F 26 °F 48 °F (1981)
Min Temperature 21 °F 10 °F -25 °F (1971)
Degree Days  
Heating Degree Days 38    
Moisture  
Dew Point 25 °F    
Average Humidity 89    
Maximum Humidity 100    
Minimum Humidity 74    
Precipitation  
Precipitation 0.00 in - - ()
Sea Level Pressure  
Sea Level Pressure 29.67 in    
Wind  
Wind Speed 0 mph (North)    
Max Wind Speed 0 mph    
Max Gust Speed -    
Visibility 10 miles    
Events      
Averages and records for this station are not official NWS values.
T = Trace of Precipitation, MM = Missing Value Source: NWS Daily Summary

Daily Weather History Graph

Daily Weather History Graph

Search for Another Location

Airport or City:

Astronomy

Nov. 11, 2012 Rise Set
Actual Time 9:04 AM AKST 4:23 PM AKST
Civil Twilight 8:11 AM AKST 5:16 PM AKST
Nautical Twilight 7:15 AM AKST 6:12 PM AKST
Astronomical Twilight 6:23 AM AKST 7:04 PM AKST
Moon 5:54 AM AKST (11/11) 3:22 PM AKST (11/11)
Length of Visible Light 9h 04m
Length of Day
7h 18m
Waning Crescent, 6% of the Moon is Illuminated
Nov 11
Waning Crescent
Nov 13
New
Nov 20
First Quarter
Nov 28
Full
Dec 6
Last Quarter

Hourly Weather History & Observations

Time (AKST) Temp. Dew Point Humidity Pressure Visibility Wind Dir Wind Speed Gust Speed Precip Events Conditions
12:53 AM 27.0 °F 25.0 °F 92% 29.60 in 10.0 mi Calm Calm - N/A   Overcast
1:53 AM 26.1 °F 24.1 °F 92% 29.60 in 10.0 mi Calm Calm - N/A   Clear
3:53 AM 26.1 °F 24.1 °F 92% 29.59 in 10.0 mi Calm Calm - N/A   Scattered Clouds
4:53 AM 26.1 °F 23.0 °F 88% 29.59 in 10.0 mi Calm Calm - N/A   Clear
5:53 AM 26.1 °F 23.0 °F 88% 29.60 in 10.0 mi Calm Calm - N/A   Partly Cloudy
6:53 AM 25.0 °F 21.9 °F 88% 29.60 in 10.0 mi Calm Calm - N/A   Partly Cloudy
7:53 AM 21.0 °F 21.0 °F 100% 29.60 in 10.0 mi Calm Calm - N/A   Overcast
8:53 AM 24.1 °F 23.0 °F 96% 29.61 in 10.0 mi Calm Calm - N/A   Overcast
9:53 AM 26.1 °F 24.1 °F 92% 29.62 in 10.0 mi Calm Calm - N/A   Overcast
10:53 AM 27.0 °F 25.0 °F 92% 29.63 in 10.0 mi Calm Calm - N/A   Overcast
11:53 AM 28.9 °F 26.1 °F 89% 29.65 in 10.0 mi Calm Calm - N/A   Overcast
12:53 PM 32.0 °F 27.0 °F 82% 29.66 in 10.0 mi Calm Calm - N/A   Overcast
1:53 PM 32.0 °F 27.0 °F 82% 29.67 in 10.0 mi Calm Calm - N/A   Mostly Cloudy
2:53 PM 32.0 °F 27.0 °F 82% 29.67 in 10.0 mi Calm Calm - N/A   Scattered Clouds
3:53 PM 30.9 °F 27.0 °F 85% 29.69 in 10.0 mi Calm Calm - N/A   Scattered Clouds
4:53 PM 28.9 °F 27.0 °F 92% 29.70 in 10.0 mi Calm Calm - N/A   Mostly Cloudy
5:53 PM 28.0 °F 26.1 °F 92% 29.71 in 10.0 mi Calm Calm - N/A   Partly Cloudy
6:53 PM 27.0 °F 25.0 °F 92% 29.72 in 10.0 mi Calm Calm - N/A   Clear
7:53 PM 26.1 °F 24.1 °F 92% 29.74 in 10.0 mi Calm Calm - N/A   Overcast
8:53 PM 27.0 °F 24.1 °F 89% 29.75 in 10.0 mi Calm Calm - N/A   Overcast
9:53 PM 26.1 °F 24.1 °F 92% 29.77 in 10.0 mi Calm Calm - N/A   Mostly Cloudy
10:53 PM 26.1 °F 24.1 °F 92% 29.78 in 10.0 mi Calm Calm - N/A   Clear
11:53 PM 23.0 °F 21.0 °F 92% 29.80 in 10.0 mi Calm Calm - N/A   Mostly Cloudy